Hourly Data Report for June 26, 2017

All times are specified in Local Standard Time (LST). Add 1 hour to adjust for Daylight Saving Time where and when it is observed.

MONTREAL MIRABEL INTL A
QUEBEC

45°40'50.000" N
74°02'19.000" W
82.30 m
7034900
YMX

Related Data

No related data is available for this station

Download Data

Hourly Data (June 2017)
Hourly Data Report for June 26, 2017
Temp Definition
°C
Dew Point Temp Definition
°C
Rel Hum Definition
%
Wind Dir Definition
10's deg

Wind Spd Definition
km/h
Visibility Definition
km
Stn Press Definition
kPa
Hmdx Definition


Wind Chill Definition


Weather Definition


TIME
00:00 Legend Double Dagger 12.9 12.6 98 24 4 40.2 100.23     LegendNANA
01:00 Legend Double Dagger 12.9 12.8 99 26 7 19.3 100.24     Rain Showers
02:00 Legend Double Dagger 12.9 12.8 99 26 7 24.1 100.22     LegendNANA
03:00 Legend Double Dagger 13.0 13.0 100 27 9 40.2 100.24     LegendNANA
04:00 Legend Double Dagger 12.9 12.5 98 25 5 40.2 100.28     Mostly Cloudy
05:00 Legend Double Dagger 12.9 12.7 98 25 5 72.4 100.33     LegendNANA
06:00 Legend Double Dagger 13.7 12.5 92 28 7 72.4 100.38     LegendNANA
07:00 Legend Double Dagger 14.5 9.7 73 30 8 72.4 100.45     Mainly Clear
08:00 Legend Double Dagger 15.6 10.7 72 35 9 72.4 100.50     LegendNANA
09:00 Legend Double Dagger 17.3 7.3 51 32 14 72.4 100.49     LegendNANA
10:00 Legend Double Dagger 17.9 5.7 44 28 14 72.4 100.49     Mainly Clear
11:00 Legend Double Dagger 18.2 5.1 42 28 12 72.4 100.52     LegendNANA
12:00 Legend Double Dagger 19.1 6.3 43 29 9 72.4 100.49     LegendNANA
13:00 Legend Double Dagger 19.6 6.3 41 32 10 72.4 100.43     Mainly Clear
14:00 Legend Double Dagger 20.1 7.0 42 33 10 72.4 100.40     LegendNANA
15:00 Legend Double Dagger 20.9 6.1 38 27 14 72.4 100.39     LegendNANA
16:00 Legend Double Dagger 20.8 6.0 38 25 13 72.4 100.36     Mainly Clear
17:00 Legend Double Dagger 20.7 8.4 45 25 7 72.4 100.35     LegendNANA
18:00 Legend Double Dagger 20.4 7.0 41 26 7 72.4 100.35     LegendNANA
19:00 Legend Double Dagger 18.9 7.6 47 24 4 72.4 100.36     Mainly Clear
20:00 Legend Double Dagger 15.4 10.4 72 19 4 40.2 100.36     LegendNANA
21:00 Legend Double Dagger 14.6 10.3 75 36 3 40.2 100.38     LegendNANA
22:00 Legend Double Dagger 14.5 10.3 76 36 2 40.2 100.36     Mostly Cloudy
23:00 Legend Double Dagger 14.1 12.7 91 36 3 40.2 100.34     LegendNANA

Notes on Data Quality.

Legend

  • E = Estimated
  • M = Missing
  • NA = Not Available
  • ‡ = Partner data that is not subject to review by the National Climate Archives
Date modified: